7L2IWN-13 Weather Reports


Display with metric or nautical units.
time (UTC)temp
F
wind
direction
speed
MPH
gust
MPH
rain 1hr
in
rain 24hr
in
rain mn
in
humidity
%
barometer
mb
20260510070003 71 68 12.0 16.0 0.00 0.00 0.00 48 1016.3
20260510064804 71 114 6.0 12.0 0.00 0.00 0.00 48 1016.2
20260510063602 71 94 10.0 17.0 0.00 0.00 0.00 48 1016.4
20260510062403 72 118 9.0 14.0 0.00 0.00 0.00 47 1016.3
20260510061203 72 134 6.0 13.0 0.00 0.00 0.00 45 1016.4
20260510060002 71 117 6.0 10.0 0.00 0.00 0.00 44 1016.5
20260510054804 72 92 8.0 13.0 0.00 0.00 0.00 43 1016.3
20260510053603 73 112 8.0 20.0 0.00 0.00 0.00 42 1016.7
20260510052403 72 104 7.0 12.0 0.00 0.00 0.00 42 1016.7
20260510051202 73 103 7.0 17.0 0.00 0.00 0.00 41 1016.7
20260510050004 72 308 3.0 7.0 0.00 0.00 0.00 41 1016.6
20260510044802 73 168 2.0 6.0 0.00 0.00 0.00 39 1016.7
20260510043603 73 353 7.0 9.0 0.00 0.00 0.00 39 1016.6
20260510042402 73 4 3.0 6.0 0.00 0.00 0.00 38 1017.0
20260510041204 73 42 10.0 17.0 0.00 0.00 0.00 39 1016.9
20260510040002 72 15 6.0 12.0 0.00 0.00 0.00 39 1017.2
20260510033602 73 32 9.0 15.0 0.00 0.00 0.00 38 1017.2
20260510032403 72 15 9.0 15.0 0.00 0.00 0.00 38 1017.3
20260510031204 73 208 2.0 3.0 0.00 0.00 0.00 37 1017.8
20260510030003 71 309 2.0 3.0 0.00 0.00 0.00 39 1018.0
20260510024804 70 307 3.0 8.0 0.00 0.00 0.00 36 1018.3
20260510023602 69 22 5.0 8.0 0.00 0.00 0.00 36 1018.5
20260510022403 69 48 8.0 10.0 0.00 0.00 0.00 36 1018.4
20260510021202 68 356 6.0 12.0 0.00 0.00 0.00 36 1018.7
20260510020004 68 3 3.0 9.0 0.00 0.00 0.00 36 1018.8
20260510014803 69 348 6.0 10.0 0.00 0.00 0.00 36 1018.9
20260510013603 68 32 7.0 9.0 0.00 0.00 0.00 34 1019.0
20260510012402 67 8 6.0 8.0 0.00 0.00 0.00 35 1019.2
20260510011202 66 25 6.0 9.0 0.00 0.00 0.00 35 1019.4
20260510010003 65 44 6.0 15.0 0.00 0.00 0.00 35 1019.5
20260510004804 65 354 3.0 7.0 0.00 0.00 0.00 34 1019.5
20260510003603 65 108 3.0 6.0 0.00 0.00 0.00 35 1019.4
20260510002404 64 10 3.0 7.0 0.00 0.00 0.00 36 1019.4
20260510001204 64 29 8.0 9.0 0.00 0.00 0.00 35 1019.7
20260510000004 64 55 3.0 7.0 0.00 0.00 0.00 38 1019.7
20260509234804 61 65 3.0 5.0 0.00 0.00 0.00 41 1019.7
20260509233604 62 7 3.0 5.0 0.00 0.00 0.00 40 1019.8
20260509232403 61 68 3.0 5.0 0.00 0.00 0.00 48 1020.1
20260509231203 62 89 1.0 2.0 0.00 0.00 0.00 52 1020.0
20260509230004 59 107 2.0 3.0 0.00 0.00 0.00 57 1019.9
20260509224804 57 60 5.0 6.0 0.00 0.00 0.00 60 1019.8
20260509223603 58 49 3.0 5.0 0.00 0.00 0.00 59 1019.8
20260509222403 56 34 0.0 1.0 0.00 0.00 0.00 65 1019.7
20260509220005 54 32 1.0 2.0 0.00 0.00 0.00 72 1019.7
20260509214804 51 31 2.0 3.0 0.00 0.00 0.00 76 1019.7
20260509213605 51 28 3.0 5.0 0.00 0.00 0.00 78 1019.7
20260509212403 50 34 3.0 3.0 0.00 0.00 0.00 77 1019.4
20260509211204 50 23 0.0 0.0 0.00 0.00 0.00 78 1019.3
20260509210005 50 23 1.0 1.0 0.00 0.00 0.00 80 1019.2
20260509204805 49 221 0.0 0.0 0.00 0.00 0.00 80 1019.2
20260509203604 47 235 2.0 3.0 0.00 0.00 0.00 78 1019.0
20260509202404 45 226 1.0 2.0 0.00 0.00 0.00 83 1019.1
20260509201204 45 268 1.0 2.0 0.00 0.00 0.00 83 1018.9
20260509200004 44 255 2.0 2.0 0.00 0.00 0.00 86 1018.7
20260509194803 44 127 0.0 0.0 0.00 0.00 0.00 86 1018.5
20260509193603 44 21 0.0 0.0 0.00 0.00 0.00 86 1018.4
20260509192404 45 19 1.0 1.0 0.00 0.00 0.00 84 1018.3
20260509191204 45 328 0.0 0.0 0.00 0.00 0.00 81 1018.1
20260509190003 46 213 2.0 2.0 0.00 0.00 0.00 75 1018.0
20260509184803 46 228 1.0 2.0 0.00 0.00 0.00 79 1017.8
20260509183603 46 227 2.0 3.0 0.00 0.00 0.00 80 1017.7
20260509182404 46 271 2.0 2.0 0.00 0.00 0.00 80 1017.7
20260509181202 47 278 3.0 3.0 0.00 0.00 0.00 79 1017.8
20260509180003 47 237 1.0 2.0 0.00 0.00 0.00 80 1017.7
20260509174804 47 291 1.0 2.0 0.00 0.00 0.00 79 1017.3
20260509173604 46 241 3.0 5.0 0.00 0.00 0.00 80 1017.4
20260509172403 47 248 1.0 2.0 0.00 0.00 0.00 81 1017.4
20260509171203 47 305 1.0 2.0 0.00 0.00 0.00 79 1017.5
20260509170003 48 231 2.0 3.0 0.00 0.00 0.00 74 1017.2
20260509164804 48 228 3.0 3.0 0.00 0.00 0.00 77 1017.1
20260509163603 47 227 2.0 3.0 0.00 0.00 0.00 77 1017.1
20260509162403 48 276 3.0 5.0 0.00 0.00 0.00 78 1017.1
20260509161203 48 302 3.0 3.0 0.00 0.00 0.00 76 1017.2
20260509160004 48 238 3.0 5.0 0.00 0.00 0.00 73 1017.1
20260509154804 48 278 2.0 2.0 0.00 0.00 0.00 77 1017.1
20260509153603 49 249 2.0 3.0 0.00 0.00 0.00 74 1017.1
20260509152403 49 309 0.0 0.0 0.00 0.00 0.00 76 1017.0
20260509151202 49 257 1.0 3.0 0.00 0.00 0.00 73 1017.1
20260509150004 50 260 2.0 3.0 0.00 0.00 0.00 71 1017.0
20260509144804 50 254 3.0 3.0 0.00 0.00 0.00 70 1017.0
20260509143603 50 241 2.0 3.0 0.00 0.00 0.00 70 1017.0
20260509142403 50 232 1.0 2.0 0.00 0.00 0.00 71 1016.7
20260509141204 51 234 2.0 3.0 0.00 0.00 0.00 70 1016.7
20260509140003 51 257 2.0 2.0 0.00 0.00 0.00 69 1016.6
20260509134802 51 201 0.0 0.0 0.00 0.00 0.00 70 1016.4
20260509133604 52 292 1.0 2.0 0.00 0.00 0.00 68 1016.5
20260509132404 52 223 1.0 2.0 0.00 0.00 0.00 68 1016.2
20260509131818 53 287 3.0 3.0 0.00 0.00 0.00 67 1016.3
20260509131605 53 298 3.0 5.0 0.00 0.00 0.00 66 1016.2
20260509130405 53 232 0.0 0.0 0.00 0.00 0.00 65 1016.1
20260509125206 54 246 1.0 1.0 0.00 0.00 0.00 64 1015.9
20260509124006 54 281 2.0 2.0 0.00 0.00 0.00 64 1016.0
20260509122807 55 282 1.0 2.0 0.00 0.00 0.00 61 1015.7
20260509121604 56 236 2.0 3.0 0.00 0.00 0.00 60 1015.7
20260509120406 56 203 1.0 2.0 0.00 0.00 0.00 60 1015.7
20260509115207 56 302 1.0 2.0 0.00 0.00 0.00 59 1015.7
20260509114004 57 249 2.0 3.0 0.00 0.00 0.00 57 1015.3
20260509112806 58 283 3.0 5.0 0.00 0.00 0.00 55 1015.3
20260509111606 58 303 2.0 2.0 0.00 0.00 0.00 55 1015.1
20260509110404 58 241 2.0 2.0 0.00 0.00 0.00 55 1014.6
20260509105205 59 209 2.0 5.0 0.00 0.00 0.00 55 1014.6
20260509104005 60 61 0.0 0.0 0.00 0.00 0.00 52 1014.3
20260509102806 60 333 2.0 3.0 0.00 0.00 0.00 49 1014.1
20260509101604 60 333 0.0 2.0 0.00 0.00 0.00 49 1013.8
20260509100407 61 90 1.0 2.0 0.00 0.00 0.00 45 1013.3
20260509095205 62 23 0.0 2.0 0.00 0.00 0.00 43 1013.3
20260509094008 61 27 1.0 2.0 0.00 0.00 0.00 46 1013.2
20260509091606 65 82 5.0 6.0 0.00 0.00 0.00 33 1012.7
20260509090405 66 79 6.0 8.0 0.00 0.00 0.00 33 1012.4
20260509085205 66 44 6.0 8.0 0.00 0.00 0.00 33 1012.2
20260509084006 67 52 5.0 9.0 0.00 0.00 0.00 32 1012.1
20260509082804 67 63 3.0 6.0 0.00 0.00 0.00 32 1012.0
20260509081605 67 28 9.0 14.0 0.00 0.00 0.00 31 1011.7
20260509080405 68 35 9.0 16.0 0.00 0.00 0.00 32 1011.5
20260509075206 69 38 5.0 8.0 0.00 0.00 0.00 32 1011.4
20260509074005 69 63 6.0 10.0 0.00 0.00 0.00 31 1011.1
20260509072804 69 55 12.0 17.0 0.00 0.00 0.00 31 1010.9
20260509071604 70 15 8.0 12.0 0.00 0.00 0.00 30 1010.6